Theta_e
297 296 295 295 295 295 295 294 294 294 294 293 293 293 293 293 293 293 294 293 292 293 291 290 291 291 290 289 286 285 284 282 283 281 276 276 274 275 278 279 280 281 281
297 296 296 296 295 295 294 294 294 294 294 294 293 292 292 292 292 292 291 292 291 291 292 291 292 292 289 289 287 286 284 282 283 283 274 274 274 274 272 273 279 282 279
296 295 295 295 294 294 294 294 294 294 293 293 293 292 292 291 291 290 291 290 290 291 291 291 291 289 288 286 285 284 282 284 279 278 280 273 272 272 274 276 276 275 281
294 294 293 293 294 294 294 294 293 293 293 292 293 292 291 291 290 289 289 289 289 290 290 290 290 289 289 286 284 284 282 280 276 275 274 274 273 274 274 275 276 278 278
294 293 293 294 294 294 293 293 293 292 292 292 291 291 291 290 290 288 288 288 287 287 287 287 288 288 288 289 287 283 281 278 276 276 274 273 273 275 275 275 276 278 278
293 293 294 294 293 293 293 293 292 292 291 291 290 290 289 290 292 292 291 287 287 286 286 286 286 285 285 290 290 289 285 280 278 277 273 275 273 273 274 276 277 277 277
292 292 292 293 292 292 292 292 291 291 291 290 289 289 289 289 292 293 291 289 287 286 285 284 285 286 284 284 288 290 288 288 286 281 277 277 274 278 277 278 277 278 278
290 290 290 290 290 290 290 290 290 290 289 288 287 287 287 288 291 291 290 287 286 285 284 284 283 284 284 283 283 282 283 283 284 282 280 279 280 280 280 279 279 279 280
287 287 288 288 288 287 286 287 288 287 286 286 285 286 286 286 290 290 289 285 284 284 284 284 283 283 285 288 282 281 281 281 284 287 286 286 286 286 282 281 278 277 275
286 286 286 285 286 286 286 285 285 285 285 285 285 285 285 287 289 290 289 285 283 284 284 284 284 282 287 288 284 282 281 282 281 281 283 284 285 283 284 281 281 276 279
284 284 284 284 284 284 285 284 284 284 284 283 284 284 284 284 286 289 289 285 285 285 284 285 284 287 288 289 289 282 282 282 282 281 281 281 281 281 281 282 281 281 279
284 283 283 283 284 283 283 284 283 283 282 283 284 284 284 284 285 286 287 288 287 283 284 284 284 288 288 288 286 286 286 284 280 279 280 280 280 280 280 280 281 281 281
283 281 282 281 282 283 283 282 281 282 283 282 283 282 283 284 284 286 286 287 287 283 285 287 287 287 287 285 288 287 280 278 277 275 275 277 279 280 279 278 278 277 277
283 281 283 283 281 281 282 282 281 281 282 282 282 281 282 283 284 285 285 284 285 285 285 283 284 284 285 284 282 283 279 279 279 277 277 277 278 278 278 277 276 276 275
283 283 283 283 283 283 283 283 283 283 284 282 282 282 281 282 284 287 285 284 284 285 278 279 282 282 277 280 281 275 277 278 277 279 280 276 277 278 277 278 277 276 276
283 282 283 282 282 282 283 282 286 286 286 286 286 285 284 286 287 287 287 287 287 286 282 274 273 271 274 271 272 273 274 276 279 278 276 277 276 276 277 277 277 276 275
282 282 282 282 282 281 282 282 281 284 286 286 286 286 286 286 286 287 287 286 287 284 282 279 278 277 277 277 276 275 275 278 279 281 279 278 277 276 276 276 276 276 274
282 282 281 281 281 282 282 282 282 281 281 281 285 285 286 286 286 286 286 284 281 282 281 280 280 280 280 280 281 278 273 273 277 277 278 278 277 276 275 276 276 274 273
282 281 282 282 282 282 282 282 282 282 282 281 282 283 282 285 285 285 285 282 281 281 281 281 281 281 281 281 281 271 272 271 272 275 278 277 278 277 276 276 276 275 272
281 281 282 282 281 281 281 281 282 282 281 280 280 281 282 282 281 281 281 281 281 280 281 280 281 281 281 281 278 269 268 270 271 274 277 278 278 278 277 276 275 273 270
281 282 281 281 281 281 281 281 281 281 281 280 280 282 283 281 280 280 279 280 279 280 279 280 280 280 279 269 267 268 268 270 272 274 275 277 277 277 277 277 274 272 271
282 282 282 281 281 281 281 281 281 280 279 274 273 279 281 280 280 279 279 279 279 279 280 279 280 280 279 277 274 268 267 268 270 270 273 277 277 277 276 275 273 271 269
282 281 281 280 280 280 280 280 280 280 278 272 277 279 280 280 280 280 280 280 280 280 280 280 279 279 280 280 281 280 277 270 270 269 270 273 277 276 276 273 273 270 269
272 273 273 271 268 269 264 263 264 272 274 268 265 275 279 279 279 278 270 272 279 279 278 279 278 275 270 274 279 280 279 268 265 270 270 269 269 274 273 270 271 270 270
267 267 267 265 263 262 261 260 261 260 260 261 261 261 263 261 262 262 262 262 269 277 277 277 277 276 272 269 269 269 268 269 267 268 268 268 272 271 270 269 269 268 267
265 265 263 261 260 259 259 260 259 259 260 258 258 258 258 258 259 259 260 261 261 262 264 270 275 277 277 274 269 269 269 271 270 268 268 267 269 270 270 270 270 268 268
Wind_Speed
8 8 8 7 7 7 7 7 7 6 7 7 7 7 8 7 7 7 8 6 8 8 6 6 10 6 6 5 4 4 5 4 8 4 3 3 3 2 3 2 3 4 3
6 6 7 6 6 6 6 6 6 6 6 6 6 6 6 7 6 7 8 7 8 9 9 8 11 6 8 6 5 7 6 5 7 12 3 3 4 2 3 2 3 1 2
5 6 5 5 5 6 5 5 5 6 6 6 6 6 7 7 7 7 8 8 8 10 10 10 11 7 9 5 5 6 5 6 4 4 6 2 3 1 2 2 1 2 1
6 5 5 5 6 5 5 5 6 6 6 6 6 6 6 6 6 6 7 7 8 9 9 9 9 9 11 7 7 8 6 5 3 3 3 3 2 2 1 2 2 0 1
6 5 4 3 3 3 3 3 3 3 3 3 3 4 5 4 4 6 6 7 7 8 7 7 8 9 12 11 7 7 6 5 3 3 2 1 2 1 3 2 2 1 0
6 6 5 6 5 4 3 2 2 1 2 1 3 3 4 3 6 8 7 5 6 6 7 6 7 8 9 15 17 13 11 7 7 5 3 4 4 4 3 3 2 2 2
7 6 6 5 5 5 4 4 4 3 2 2 3 3 4 4 7 8 8 4 5 5 6 5 6 5 7 6 9 12 12 17 13 7 5 6 3 6 4 4 4 3 3
7 6 5 5 5 5 5 5 5 4 5 4 4 5 5 4 10 11 10 4 3 5 5 5 6 7 7 6 5 6 7 6 7 5 6 5 5 4 5 5 5 3 0
6 5 5 4 5 5 5 5 4 4 4 4 3 5 5 5 10 10 7 4 3 5 4 5 5 6 9 9 5 5 5 5 6 10 9 10 8 8 8 4 2 2 2
5 4 4 4 5 5 5 5 2 3 3 3 5 5 4 4 9 12 8 3 3 3 3 5 6 6 9 9 6 5 5 5 4 3 3 6 6 6 10 2 3 2 2
5 5 5 5 5 5 4 3 3 4 5 5 5 5 6 7 8 15 15 4 4 3 3 3 3 7 8 8 10 4 5 2 5 3 2 2 1 1 1 2 2 2 2
5 5 5 5 4 4 6 5 5 5 6 7 8 7 6 6 12 14 16 13 9 2 2 2 3 8 9 10 5 6 7 2 2 2 2 2 2 2 1 2 2 1 1
6 6 6 5 5 5 7 5 5 6 6 5 4 4 5 5 5 13 14 15 13 3 2 5 9 11 11 7 7 2 3 3 2 1 1 2 2 2 3 3 3 5 4
7 7 6 8 6 6 5 5 6 6 5 5 5 6 6 7 6 7 6 7 11 6 6 5 8 9 10 6 4 3 2 2 2 2 2 2 2 2 3 3 2 2 2
6 6 6 5 6 6 6 5 6 3 4 4 4 3 6 6 7 10 9 7 6 7 4 3 5 5 4 4 3 2 1 1 2 2 3 2 2 2 2 3 2 3 2
6 4 4 5 4 3 5 6 12 12 14 14 13 9 4 11 12 12 14 12 11 11 4 3 4 3 3 3 2 3 2 3 3 2 2 3 3 3 3 2 2 2 2
6 6 5 5 7 7 6 6 7 8 15 15 15 14 14 13 13 12 12 11 12 7 5 4 4 5 5 5 4 3 3 3 4 5 3 3 1 2 3 2 1 2 1
6 7 6 5 5 7 5 5 6 7 7 5 11 11 13 13 12 13 13 7 7 8 4 5 5 4 5 5 5 4 4 3 2 0 1 1 2 2 1 2 2 2 2
8 5 7 5 6 6 5 5 6 5 7 4 4 8 6 11 11 12 11 3 3 4 4 5 5 5 5 6 5 3 2 2 1 1 1 2 3 2 1 1 2 4 3
5 8 6 5 5 6 6 6 7 7 5 6 5 4 4 5 5 5 5 5 6 5 3 4 3 3 3 5 3 3 2 1 1 1 1 1 1 2 3 3 3 2 1
7 6 8 6 6 7 7 7 6 6 6 5 5 4 5 4 4 5 3 4 3 3 2 3 4 5 5 3 2 2 2 2 2 2 2 2 2 2 2 3 3 3 3
9 9 8 8 7 7 7 6 6 5 5 4 1 2 4 3 3 3 2 3 3 3 4 3 4 5 3 3 3 2 3 3 3 2 2 2 2 2 3 3 3 2 2
9 9 8 7 7 8 6 5 5 4 3 2 2 2 2 2 2 3 4 5 5 5 5 5 6 6 5 6 6 6 4 4 4 3 3 3 3 4 3 3 3 2 3
5 6 6 5 4 3 3 3 3 3 3 1 0 1 2 2 3 4 3 4 6 6 6 6 6 7 6 6 6 5 6 4 3 4 6 4 4 4 3 2 3 4 4
5 5 5 5 4 4 4 3 3 2 2 2 2 1 1 2 2 2 3 2 3 6 8 7 7 8 8 9 8 8 7 7 5 5 4 4 6 7 4 3 3 3 3
5 5 5 4 4 4 4 4 3 2 2 1 1 1 1 3 3 3 3 4 3 3 5 5 9 13 14 8 8 9 8 8 6 7 5 4 5 5 5 6 9 5 6
Wind_Direction
166 175 174 188 193 199 207 209 207 204 206 214 213 214 218 219 213 218 232 227 224 238 231 221 241 218 230 221 205 207 215 184 247 275 227 233 275 269 291 274 267 264 276
166 165 178 184 193 201 210 215 209 220 219 221 218 220 222 221 213 214 224 225 221 233 238 229 242 225 232 228 206 224 215 200 212 253 249 251 228 266 264 281 262 251 261
148 152 159 181 193 207 214 217 220 228 230 232 225 227 228 226 221 219 220 219 220 228 232 229 240 213 234 224 210 221 217 228 203 198 259 215 236 251 317 303 293 315 306
134 146 165 187 201 210 219 222 221 224 234 235 232 233 231 232 227 226 221 225 228 232 232 230 232 216 233 220 216 221 216 211 196 203 224 235 194 246 139 224 305 317 12
134 144 171 183 180 193 199 214 226 227 242 251 260 266 263 254 246 239 231 231 233 241 236 233 234 228 225 218 217 222 194 208 199 208 226 179 217 196 192 219 207 177 118
98 93 87 87 86 82 77 68 59 0 320 312 290 272 284 277 265 259 246 242 240 238 250 247 245 241 242 234 226 212 198 199 209 200 194 210 226 202 179 186 175 164 222
82 68 63 72 76 68 73 75 61 43 35 7 347 332 318 315 300 296 280 273 249 244 246 255 264 252 244 238 243 232 219 225 209 193 204 214 214 202 172 178 200 188 208
82 73 59 65 69 62 65 63 55 50 52 46 31 14 11 352 358 360 355 337 301 282 270 268 260 268 256 236 239 242 233 234 222 189 196 207 218 205 180 181 181 161 145
78 72 59 58 74 75 69 66 57 62 52 43 26 24 22 6 6 10 10 356 325 307 301 298 280 272 268 251 223 243 257 250 238 223 214 227 225 206 173 134 160 137 245
86 84 76 70 76 75 76 74 59 73 73 45 42 31 27 15 12 13 13 358 321 301 306 306 295 270 276 249 215 220 253 265 202 216 213 228 201 204 191 175 141 166 186
105 99 89 82 86 84 83 74 67 66 65 51 53 36 31 22 12 17 10 2 331 331 325 324 323 327 309 281 232 194 229 203 223 185 154 138 157 194 185 173 164 176 191
100 93 85 81 84 89 85 64 61 68 65 54 51 42 30 13 16 11 9 9 1 350 335 341 344 349 334 328 304 214 252 252 80 99 146 196 197 211 201 171 193 155 56
99 87 79 69 71 72 86 68 64 63 62 50 44 39 29 23 12 13 16 17 15 44 50 24 9 10 9 11 0 296 60 91 105 112 201 214 194 183 149 135 85 90 72
99 98 90 83 72 61 67 66 65 61 61 58 56 49 39 27 15 21 27 32 36 30 18 21 24 25 26 10 16 49 96 134 181 202 215 217 172 161 180 139 128 146 121
99 91 91 85 83 88 74 68 72 67 85 80 70 57 40 30 21 44 49 52 46 31 21 23 27 14 7 359 341 330 286 228 219 227 234 200 185 163 146 152 134 166 172
107 103 102 102 93 88 117 106 93 80 74 71 65 66 54 60 60 63 55 57 52 41 41 26 355 351 333 308 293 277 249 247 250 239 219 199 185 172 164 151 136 153 143
122 120 122 121 129 132 127 119 106 78 77 71 70 68 66 66 64 53 48 40 27 22 25 23 355 354 340 332 316 290 272 241 228 227 206 191 145 139 159 177 133 126 121
121 122 128 128 125 119 111 104 102 98 85 64 62 61 65 65 57 46 44 35 33 30 25 13 358 351 347 335 327 308 297 308 322 97 114 117 122 126 133 174 163 138 144
135 132 130 120 118 111 103 101 104 100 98 82 78 57 40 56 61 56 55 59 44 37 22 16 3 358 346 347 335 319 322 317 329 61 83 122 139 135 151 159 174 160 130
126 127 124 120 116 116 120 119 118 114 109 95 81 68 56 58 51 48 38 40 35 30 13 7 342 325 338 343 325 308 347 17 122 122 144 150 166 168 167 162 168 152 158
137 133 130 126 130 134 132 131 133 128 116 108 96 68 74 69 54 42 32 23 16 1 345 332 325 328 326 314 317 325 293 268 233 200 194 206 186 196 170 163 161 146 138
144 143 143 142 141 144 145 141 135 131 128 119 74 46 67 70 55 36 17 0 341 322 320 299 297 305 299 296 290 290 287 274 276 246 227 212 184 165 159 163 158 147 145
150 147 147 148 150 148 147 146 146 148 138 121 123 95 67 36 17 10 351 337 326 320 312 302 296 293 291 292 293 288 269 248 230 211 199 189 190 182 175 168 162 148 163
143 145 148 149 143 133 135 148 148 154 141 154 128 49 14 342 344 348 313 318 327 319 318 309 296 293 294 278 276 276 274 260 218 212 199 188 195 188 170 157 176 184 174
130 132 133 141 138 138 126 120 117 124 118 93 56 26 325 3 3 331 304 315 323 324 312 307 301 299 290 288 276 269 266 268 246 224 201 191 197 192 185 176 157 162 158
125 124 123 123 122 132 136 135 127 121 108 77 47 350 342 343 322 329 328 335 324 300 296 304 302 300 298 288 280 273 263 260 256 233 201 188 204 203 196 193 194 181 174